TimeCDT,TemperatureF,Dew PointF,Humidity,Sea Level PressureIn,VisibilityMPH,Wind Direction,Wind SpeedMPH,Gust SpeedMPH,PrecipitationIn,Events,Conditions,WindDirDegrees,DateUTC
12:54 AM,70.0,51.1,51,29.96,10.0,SSE,5.8,-,N/A,,Clear,150,2012-05-19 05:54:00
1:54 AM,68.0,51.1,55,29.96,10.0,SSE,4.6,-,N/A,,Clear,160,2012-05-19 06:54:00
2:54 AM,69.1,52.0,54,29.96,10.0,South,5.8,-,N/A,,Clear,170,2012-05-19 07:54:00
3:54 AM,66.9,53.1,61,29.97,10.0,SE,3.5,-,N/A,,Clear,130,2012-05-19 08:54:00
4:54 AM,64.0,53.1,67,29.97,10.0,Calm,Calm,-,N/A,,Clear,0,2012-05-19 09:54:00
5:54 AM,63.0,54.0,72,29.98,10.0,Calm,Calm,-,N/A,,Clear,0,2012-05-19 10:54:00
6:54 AM,66.0,57.0,73,29.99,9.0,SE,3.5,-,N/A,,Clear,140,2012-05-19 11:54:00
7:54 AM,70.0,59.0,68,30.00,10.0,South,5.8,-,N/A,,Clear,170,2012-05-19 12:54:00
8:54 AM,75.0,60.1,60,30.01,9.0,South,10.4,-,N/A,,Clear,170,2012-05-19 13:54:00
9:54 AM,79.0,60.1,52,30.00,10.0,South,8.1,-,N/A,,Clear,170,2012-05-19 14:54:00
10:54 AM,84.0,59.0,43,30.01,10.0,South,9.2,-,N/A,,Clear,190,2012-05-19 15:54:00
11:54 AM,86.0,57.9,38,30.01,10.0,SSW,11.5,-,N/A,,Scattered Clouds,210,2012-05-19 16:54:00
12:54 PM,88.0,59.0,37,30.00,10.0,WSW,10.4,20.7,N/A,,Mostly Cloudy,250,2012-05-19 17:54:00
1:54 PM,89.1,57.9,35,29.98,10.0,SW,12.7,18.4,N/A,,Clear,230,2012-05-19 18:54:00
2:54 PM,88.0,55.0,32,29.96,10.0,South,13.8,-,N/A,,Clear,190,2012-05-19 19:54:00
3:54 PM,88.0,54.0,31,29.95,10.0,South,12.7,20.7,N/A,,Partly Cloudy,180,2012-05-19 20:54:00
4:54 PM,89.1,57.0,34,29.94,10.0,South,13.8,-,N/A,,Clear,190,2012-05-19 21:54:00
5:54 PM,84.9,55.9,37,29.93,10.0,South,11.5,-,N/A,,Clear,190,2012-05-19 22:54:00
6:54 PM,82.0,55.0,39,29.94,10.0,SSW,8.1,-,N/A,,Clear,200,2012-05-19 23:54:00
7:54 PM,79.0,55.9,45,29.96,10.0,SSW,6.9,-,N/A,,Clear,200,2012-05-20 00:54:00
8:54 PM,78.1,55.9,46,29.97,10.0,South,5.8,-,N/A,,Clear,180,2012-05-20 01:54:00
9:54 PM,75.9,55.0,48,29.98,10.0,SSE,5.8,-,N/A,,Clear,160,2012-05-20 02:54:00
10:54 PM,73.0,55.9,55,29.99,10.0,South,6.9,-,N/A,,Clear,180,2012-05-20 03:54:00
11:54 PM,72.0,55.9,57,30.01,10.0,South,8.1,-,N/A,,Clear,180,2012-05-20 04:54:00